[[{"header":{"parameterUnit":"m.s-1","parameterCategory":1,"la1":30.2991,"la2":30.254,"lo1":-89.0895,"lo2":-89.0444,"dy":0.0017,"dx":0.0017,"nx":28,"ny":28,"refTime":"2023-10-01T03:00:00:Z","depth":0,"parameterNumber":2,"parameterNumberName":"U-component_of_WINDS"},"data":[0,0,0,0,0,0,0,0,0,0,0,0,0,0,0,0,0,0,0,0,0,0,0,0,0,0,0,0,0,0,0,0,0,0,0,0,0,0,0,0,0,0,0,0,0,0,0,0,0,0,0,0,0,0,0,0,0,0,-5.9566,-5.9566,0,-5.9633,-5.9634,-5.9635,-5.9543,-5.954,-5.9537,-5.9533,-5.9604,-5.9608,-5.9613,0,0,0,0,0,0,0,0,0,0,0,0,0,-5.9359,-5.9363,-5.9566,-5.9566,-5.9567,-5.9633,-5.9634,-5.9635,-5.9544,-5.954,-5.9536,-5.9532,-5.9602,-5.9608,-5.9614,0,0,0,0,0,0,0,0,0,0,0,0,0,-5.944,-5.9365,-5.9565,-5.953,-5.9527,-5.9633,-5.9634,-5.9635,-5.9545,-5.954,-5.9535,-5.953,-5.96,-5.9607,-5.9614,-5.9758,0,0,-5.9637,-5.964,0,0,0,0,0,0,0,0,-5.9435,-5.9448,-5.9534,-5.9532,-5.953,-5.9575,-5.9587,-5.9676,-5.9546,-5.9538,-5.9533,-5.9528,-5.9598,-5.9605,-5.9629,-5.9762,-5.9765,-5.9638,-5.9642,-5.9645,-5.9647,0,0,0,0,0,0,0,-5.943,-5.9444,-5.9592,-5.9535,-5.9533,-5.9511,-5.9517,-5.9603,-5.9595,-5.9538,-5.9532,-5.9541,-5.9596,-5.9622,-5.963,-5.9766,-5.9637,-5.9644,-5.9649,-5.9651,-6.0022,-6.0027,0,0,0,0,0,0,-5.9428,-5.944,-5.959,-5.9594,-5.9469,-5.9518,-5.9525,-5.9565,-5.9594,-5.9593,-5.9545,-5.9537,-5.9612,-5.9621,-5.9632,-5.9804,-5.9645,-5.9652,-5.9656,-6.0017,-6.0023,-6.0029,0,0,0,0,0,0,-5.9424,-5.9443,-5.9587,-5.9516,-5.9532,-5.9527,-5.9573,-5.9569,-5.9595,-5.9599,-5.9597,-5.9573,-5.9608,-5.9621,-5.9728,-5.9805,-5.9655,-5.9662,-6.001,-6.0019,-6.0026,-6.0148,0,0,0,0,0,0,-5.9419,-5.9442,-5.9496,-5.9517,-5.9536,-5.9682,-5.9578,-5.9574,-5.9608,-5.9597,-5.9625,-5.9624,-5.9605,-5.9717,-5.9735,-5.9812,-5.9668,-6.0004,-6.0014,-6.0024,-6.0137,-6.0159,-6.0178,0,0,0,0,0,-5.9412,-5.9527,-5.9499,-5.9518,-5.9604,-5.9687,-5.9698,-5.9673,-5.9614,-5.9669,-5.9672,-5.9624,-5.9793,-5.9729,-5.9748,-5.9829,-5.9999,-6.0011,-6.0023,-6.0128,-6.0155,-6.0178,0,0,0,0,0,0,-5.9515,-5.953,-5.9499,-5.9624,-5.9655,-5.9671,-5.974,-5.9702,-5.9751,-5.9739,-5.9706,-5.9713,-5.9828,-5.9838,-5.9767,-5.997,-5.9886,-5.9903,-5.9959,-5.9985,-6.0005,-6.0001,-5.9674,0,0,0,0,0,-5.9553,-5.9618,-5.9627,-5.9738,-5.9755,-5.9745,-5.978,-5.9758,-5.9789,-5.9802,-5.9812,-5.9844,-5.9904,-5.9945,-6.0001,-6.0138,-6.0143,-6.0203,-6.0223,-6.024,-6.0255,-6.033,-6.0357,-6.0069,-6.0069,-6.0069,0,0,-5.9631,-5.9647,-5.969,-5.9759,-5.978,-5.985,-5.9756,-5.9833,-5.9885,-5.9813,-5.9915,-5.9924,-5.9957,-6.0081,-6.0135,-6.0093,-6.0336,-6.0256,-6.0269,-6.0275,-6.0345,-6.0373,-6.0397,-6.0078,-6.0076,-6.0075,0,0,-5.9809,-5.9827,-5.9921,-5.9945,-5.9978,-5.9971,-5.9994,-6.0017,-6.002,-6.0121,-6.0069,-6.013,-6.0235,-6.0262,-6.0289,-6.0478,-6.0436,-6.0497,-6.0605,-6.0679,-6.0701,-6.0721,-6.0791,-6.0816,-6.0512,-6.0513,-6.0513,0,-5.9902,-6.0004,-5.9975,-6.0056,-6.0089,-6.0027,-6.0123,-6.0147,-6.0198,-6.0222,-6.0174,-6.0305,-6.0323,-6.0452,-6.0499,-6.0522,-6.0548,-6.0495,-6.07,-6.072,-6.0738,-6.0804,-6.083,-6.052,-6.0519,-6.0518,-6.0518,0,-6.0117,-6.0189,-6.0261,-6.0312,-6.0352,-6.0441,-6.0426,-6.047,-6.0445,-6.0444,-6.0549,-6.0568,-6.0628,-6.0657,-6.0633,-6.0783,-6.0757,-6.0705,-6.062,-6.0774,-6.0835,-6.086,-6.053,-6.0528,-6.0526,-6.0524,0,0,-6.0362,-6.0396,-6.0423,-6.0446,-6.0479,-6.0535,-6.0621,-6.0679,-6.0718,-6.0755,-6.0827,-6.0918,-6.0871,-6.0902,-6.0881,-6.0945,-6.1097,-6.0886,-6.0886,-6.0926,-6.1265,-6.1305,-6.1334,-6.1068,-6.1073,-6.1077,-6.1263,0,-6.0541,-6.069,-6.0667,-6.0811,-6.0878,-6.0821,-6.0896,-6.0925,-6.0926,-6.0983,-6.0984,-6.1049,-6.0982,-6.1,-6.1061,-6.1065,-6.1164,-6.1051,-6.1137,-6.114,-6.1131,-6.1366,-6.1407,-6.1582,-6.1286,-6.129,-6.1293,0,-6.077,-6.0816,-6.0967,-6.0991,-6.1018,-6.1086,-6.1138,-6.1193,-6.1225,-6.1221,-6.1257,-6.1225,-6.1312,-6.1225,-6.1345,-6.1269,-6.1302,-6.131,-6.1316,-6.1324,-6.1227,-6.1382,-6.1637,-6.1664,-6.133,-6.1328,-6.1325,0,-6.0936,-6.1035,-6.1138,-6.1159,-6.1189,-6.1239,-6.1254,-6.1281,-6.1318,-6.1364,-6.1388,-6.1443,-6.1474,-6.1518,-6.1502,-6.144,-6.1626,-6.1537,-6.1627,-6.1628,-6.1669,-6.1667,-6.1935,-6.1689,-6.1689,-6.1688,-6.1688,0,-6.1139,-6.1234,-6.1213,-6.1277,-6.1382,-6.1355,-6.146,-6.1468,-6.1493,-6.1558,-6.1512,-6.1574,-6.1548,-6.1609,-6.1597,-6.1699,-6.1713,-6.1714,-6.171,-6.1719,-6.1719,-6.1741,-6.1729,-6.1695,-6.1694,-6.1692,-6.1691,0,-6.1342,-6.1332,-6.1441,-6.1461,-6.1468,-6.1545,-6.1562,-6.1622,-6.162,-6.1703,-6.1721,-6.1717,-6.1787,-6.1775,-6.1851,-6.1843,-6.1972,-6.1952,-6.1962,-6.1957,-6.2048,-6.204,-6.2341,-6.238,-6.2107,-6.211,-6.2112,0,-6.1473,-6.1544,-6.1572,-6.1612,-6.1631,-6.1696,-6.1734,-6.171,-6.1751,-6.1794,-6.185,-6.1915,-6.1966,-6.208,-6.2085,-6.2144,-6.2126,-6.2227,-6.2134,-6.2142,-6.2129,-6.2126,-6.2134,-6.2246,-6.2249,-6.2251,-6.2253,0,-6.1707,-6.1698,-6.1754,-6.181,-6.1856,-6.1898,-6.1936,-6.1971,-6.1951,-6.2,-6.207,-6.211,-6.2189,-6.2255,-6.231,-6.2325,-6.2288,-6.2283,-6.2307,-6.2317,-6.232,-6.2321,-6.2013,-6.2276,-6.2274,-6.2272,-6.2271,-6.227,-6.1878,-6.194,-6.197,-6.2034,-6.206,-6.2097,-6.2155,-6.216,-6.2218,-6.228,-6.2263,-6.2343,-6.2374,-6.2445,-6.2467,-6.253,-6.2493,-6.2527,-6.2536,-6.2546,-6.2557,-6.2309,-6.254,-6.2539,-6.2539,-6.2538,-6.2538,0,-6.2111,-6.2128,-6.2187,-6.2242,-6.2293,-6.2251,-6.2291,-6.2337,-6.2408,-6.244,-6.2492,-6.2574,-6.2638,-6.2648,-6.2709,-6.2758,-6.2742,-6.2775,-6.2772,-6.2776,-6.2586,-6.256,-6.2787,-6.2787,-6.2787,-6.2787,-6.2787,-6.2787,-6.2239,-6.2341,-6.2337,-6.2453,-6.2468,-6.2547,-6.2573,-6.2607,-6.2633,-6.2727,-6.278,-6.2786,-6.281,-6.2872,-6.293,-6.2931,-6.2957,-6.2997,-6.2992,-6.2814,-6.2789,-6.2766,-6.2741,-6.3002,-6.3002,-6.3177,-6.3178,-6.3179]},{"header":{"parameterUnit":"m.s-1","parameterCategory":1,"la1":30.2991,"la2":30.254,"lo1":-89.0895,"lo2":-89.0444,"dy":0.0017,"dx":0.0017,"nx":28,"ny":28,"refTime":"2023-10-01T03:00:00:Z","depth":0,"parameterNumber":3,"parameterNumberName":"V-component_of_WINDS"},"data":[0,0,0,0,0,0,0,0,0,0,0,0,0,0,0,0,0,0,0,0,0,0,0,0,0,0,0,0,0,0,0,0,0,0,0,0,0,0,0,0,0,0,0,0,0,0,0,0,0,0,0,0,0,0,0,0,0,0,-2.5402,-2.5401,0,-2.5341,-2.534,-2.534,-2.5261,-2.526,-2.5258,-2.5257,-2.5195,-2.5195,-2.5194,0,0,0,0,0,0,0,0,0,0,0,0,0,-2.545,-2.545,-2.5402,-2.5401,-2.5401,-2.5341,-2.534,-2.534,-2.5261,-2.526,-2.5258,-2.5257,-2.5195,-2.5195,-2.5194,0,0,0,0,0,0,0,0,0,0,0,0,0,-2.5414,-2.545,-2.5402,-2.5354,-2.5349,-2.5341,-2.534,-2.5339,-2.5261,-2.526,-2.5258,-2.5256,-2.5196,-2.5195,-2.5194,-2.5229,0,0,-2.5192,-2.5192,0,0,0,0,0,0,0,0,-2.5416,-2.5412,-2.5362,-2.5358,-2.5352,-2.5307,-2.5335,-2.5302,-2.5262,-2.5295,-2.5257,-2.5255,-2.5234,-2.523,-2.5223,-2.5226,-2.5223,-2.5192,-2.5192,-2.5191,-2.5191,0,0,0,0,0,0,0,-2.5418,-2.5414,-2.5378,-2.5362,-2.5355,-2.5336,-2.5328,-2.5328,-2.5276,-2.5292,-2.5286,-2.528,-2.5231,-2.5224,-2.5221,-2.5222,-2.5192,-2.5192,-2.5191,-2.5191,-2.5249,-2.5251,0,0,0,0,0,0,-2.5428,-2.5417,-2.538,-2.5376,-2.538,-2.5336,-2.5328,-2.5323,-2.5276,-2.5267,-2.5282,-2.5276,-2.5226,-2.5222,-2.5218,-2.5255,-2.5192,-2.5191,-2.519,-2.5247,-2.5249,-2.5252,0,0,0,0,0,0,-2.5429,-2.5426,-2.5382,-2.5395,-2.5388,-2.5338,-2.5333,-2.5323,-2.5316,-2.5268,-2.5258,-2.5284,-2.5224,-2.5219,-2.5226,-2.5252,-2.5191,-2.519,-2.5245,-2.5248,-2.5251,-2.5329,0,0,0,0,0,0,-2.5431,-2.5427,-2.5439,-2.5396,-2.5387,-2.5392,-2.5334,-2.5323,-2.5315,-2.5307,-2.5267,-2.5259,-2.5222,-2.5228,-2.5226,-2.525,-2.5189,-2.5242,-2.5246,-2.525,-2.5324,-2.5334,-2.5343,0,0,0,0,0,-2.5433,-2.5464,-2.544,-2.5436,-2.5402,-2.5394,-2.5389,-2.5346,-2.5317,-2.5329,-2.5298,-2.526,-2.5249,-2.5229,-2.5226,-2.525,-2.5241,-2.5245,-2.5249,-2.532,-2.5332,-2.5343,0,0,0,0,0,0,-2.5513,-2.5458,-2.5431,-2.5448,-2.5426,-2.538,-2.5395,-2.536,-2.5346,-2.534,-2.5287,-2.5279,-2.5292,-2.5272,-2.5251,-2.528,-2.5239,-2.5243,-2.5293,-2.5305,-2.5314,-2.5319,-2.5189,0,0,0,0,0,-2.5532,-2.553,-2.5482,-2.5502,-2.5492,-2.5445,-2.544,-2.5408,-2.5383,-2.5374,-2.5343,-2.5321,-2.5311,-2.5307,-2.5296,-2.532,-2.531,-2.5335,-2.5345,-2.5353,-2.5357,-2.5367,-2.5378,-2.5266,-2.5266,-2.5266,0,0,-2.5573,-2.5542,-2.5544,-2.5517,-2.5496,-2.5495,-2.5438,-2.5439,-2.5437,-2.5374,-2.5379,-2.5356,-2.5326,-2.5342,-2.5347,-2.5325,-2.5385,-2.5358,-2.5365,-2.5365,-2.5373,-2.5383,-2.5393,-2.5269,-2.5268,-2.5268,0,0,-2.5646,-2.5623,-2.5637,-2.5616,-2.5585,-2.5554,-2.5557,-2.5516,-2.5498,-2.5502,-2.5454,-2.5451,-2.5437,-2.5418,-2.5407,-2.5471,-2.5435,-2.5469,-2.5519,-2.553,-2.5539,-2.5546,-2.5569,-2.5578,-2.5473,-2.5473,-2.5474,0,-2.57,-2.5696,-2.5648,-2.5652,-2.5641,-2.5583,-2.5597,-2.5579,-2.5547,-2.5541,-2.5516,-2.5497,-2.5473,-2.5483,-2.5499,-2.5491,-2.5493,-2.5474,-2.5541,-2.5548,-2.5555,-2.5576,-2.5585,-2.5478,-2.5477,-2.5477,-2.5476,0,-2.5764,-2.5762,-2.5777,-2.5746,-2.5737,-2.5746,-2.5699,-2.5696,-2.5665,-2.5636,-2.564,-2.5609,-2.5591,-2.559,-2.5561,-2.5596,-2.5583,-2.5551,-2.5508,-2.557,-2.5589,-2.5597,-2.5484,-2.5482,-2.5481,-2.548,0,0,-2.5887,-2.5828,-2.5835,-2.582,-2.578,-2.5778,-2.5783,-2.5765,-2.5763,-2.5742,-2.5745,-2.5734,-2.5703,-2.569,-2.5657,-2.5667,-2.5719,-2.5633,-2.5631,-2.565,-2.5756,-2.5781,-2.5791,-2.5695,-2.5696,-2.5697,-2.5758,0,-2.5953,-2.5959,-2.5916,-2.5934,-2.5931,-2.5875,-2.588,-2.5856,-2.5829,-2.5822,-2.5791,-2.5784,-2.5745,-2.5736,-2.5743,-2.5712,-2.574,-2.5706,-2.5697,-2.5698,-2.5707,-2.5801,-2.5828,-2.5887,-2.5766,-2.5767,-2.5768,0,-2.6031,-2.6013,-2.6031,-2.599,-2.5987,-2.5992,-2.5971,-2.5966,-2.5937,-2.5916,-2.5902,-2.5863,-2.5865,-2.5825,-2.5827,-2.5805,-2.5798,-2.5782,-2.5783,-2.5781,-2.5737,-2.5802,-2.5905,-2.5914,-2.5779,-2.5778,-2.5777,0,-2.6119,-2.6099,-2.6107,-2.6096,-2.6048,-2.6053,-2.6033,-2.6003,-2.5994,-2.5976,-2.597,-2.5952,-2.5943,-2.593,-2.5887,-2.5862,-2.5894,-2.585,-2.5877,-2.5878,-2.5887,-2.5888,-2.5991,-2.5883,-2.5883,-2.5883,-2.5882,0,-2.6197,-2.621,-2.6146,-2.6151,-2.6164,-2.6113,-2.6127,-2.6102,-2.6075,-2.6074,-2.6024,-2.6024,-2.5968,-2.5962,-2.5928,-2.5935,-2.5931,-2.5914,-2.5906,-2.5919,-2.5921,-2.5915,-2.591,-2.5885,-2.5884,-2.5884,-2.5883,0,-2.6298,-2.6255,-2.626,-2.6214,-2.6203,-2.6214,-2.6174,-2.6177,-2.6146,-2.6145,-2.6142,-2.6093,-2.6083,-2.6039,-2.6019,-2.5996,-2.6014,-2.5996,-2.6024,-2.6018,-2.6048,-2.6046,-2.6151,-2.6162,-2.6047,-2.6048,-2.6049,0,-2.6351,-2.6359,-2.6314,-2.6309,-2.6292,-2.6285,-2.6276,-2.6226,-2.6219,-2.6186,-2.6193,-2.6178,-2.6164,-2.615,-2.6113,-2.6096,-2.6078,-2.6116,-2.6075,-2.6089,-2.6079,-2.6079,-2.6079,-2.6125,-2.6127,-2.6128,-2.6129,0,-2.645,-2.6428,-2.6416,-2.6397,-2.6388,-2.637,-2.635,-2.6349,-2.6294,-2.6288,-2.6276,-2.6265,-2.6243,-2.623,-2.6207,-2.6186,-2.6149,-2.6142,-2.6147,-2.6162,-2.6177,-2.6169,-2.6048,-2.614,-2.6139,-2.6138,-2.6137,-2.6137,-2.6528,-2.6533,-2.6501,-2.649,-2.6469,-2.6451,-2.6451,-2.642,-2.6409,-2.6388,-2.6359,-2.6351,-2.6321,-2.6286,-2.6268,-2.6261,-2.624,-2.6248,-2.625,-2.6253,-2.626,-2.6178,-2.6257,-2.6257,-2.6256,-2.6256,-2.6256,0,-2.6624,-2.6601,-2.6591,-2.6564,-2.6555,-2.6519,-2.6495,-2.6489,-2.6483,-2.6458,-2.6445,-2.6432,-2.6417,-2.6379,-2.6361,-2.6363,-2.6345,-2.636,-2.6359,-2.6355,-2.628,-2.6277,-2.6374,-2.6374,-2.6374,-2.6374,-2.6374,-2.6374,-2.6673,-2.668,-2.6654,-2.6649,-2.6625,-2.6617,-2.6606,-2.6589,-2.6569,-2.6556,-2.6544,-2.6518,-2.6488,-2.6467,-2.6452,-2.6441,-2.6437,-2.6458,-2.6441,-2.6372,-2.636,-2.635,-2.6347,-2.6457,-2.6457,-2.6516,-2.6517,-2.6518]}]]